SCP
-0 -1 -0 -0 -0 -0 -0 -1 -0 -0 -0 -0 -0 -0 -0 -0 -0 -0 -0 -0 -0 -0 -0 -0 -0 -0 -0 -0 -0 0 -0 -0 -0 -0 -0 -0 -0 -0 -0 -0 -0 0 0
-1 -0 -0 -0 -0 -0 -0 -0 -0 -0 -0 -0 -0 -0 -0 -0 -0 -0 -0 -0 -0 -0 -0 -0 -0 -0 -0 -0 -0 -0 -0 -0 -0 -0 -0 -0 -0 -0 -0 -0 -0 -0 -0
-1 -0 -0 -0 -0 -0 -0 -0 -0 -0 -0 -0 -0 -0 -0 -0 -0 -0 -0 -0 -0 -0 -0 -0 -0 -0 -0 -0 -0 -0 -0 -0 -0 -0 -0 0 0 0 -0 -0 -0 -0 -0
-1 -0 -0 -0 -0 -0 -0 -0 -0 -0 -0 -0 -0 -0 -0 -0 -0 -0 -0 -0 -0 -0 -0 -0 -0 -0 -0 -0 -0 -0 -0 -0 -0 -0 0 -0 -0 0 0 0 -0 0 0
-0 -0 -0 -0 -0 -0 -1 -0 -0 -0 -0 -0 -0 -0 -0 0 0 -0 -0 -0 -0 -0 -0 -0 0 0 0 0 0 -0 -0 -0 -0 0 -0 -0 -0 0 0 0 0 0 0
-0 -0 -0 -0 -0 -0 -1 -0 -0 -0 -0 -0 -0 -0 -0 0 0 0 -0 -0 -0 -0 -0 0 -0 -0 -0 -0 -0 -0 -0 -0 -0 0 -0 -0 -0 0 0 0 0 -0 0
-0 -0 -0 -0 -0 -0 -0 -1 -0 -0 -0 -0 -0 -0 0 0 0 -0 -0 0 0 0 0 0 -0 -0 -0 -0 -0 -0 -0 -0 -0 -0 -0 -0 0 0 0 0 0 0 0
0 0 -0 -0 -0 -0 -0 -0 -0 -0 -0 -0 -0 -0 -0 0 0 0 0 0 0 0 0 0 0 -0 -0 -0 -0 -0 -0 -0 -0 -0 -0 -0 0 0 0 0 0 0 0
0 0 0 0 0 -0 -0 -0 -0 -0 -0 -0 -0 -0 -0 0 0 0 0 0 0 0 0 0 0 0 0 -0 -0 -0 -0 -0 -0 -0 -0 0 0 0 0 0 0 0 0
0 0 0 0 0 0 -0 -0 -0 -0 -0 -0 -0 -0 0 0 0 0 0 0 0 0 0 0 0 0 0 0 0 0 0 -0 -0 -0 0 0 0 0 0 0 0 0 0
0 0 0 0 0 0 0 0 -0 -0 0 0 0 0 0 0 0 0 0 0 0 0 0 0 0 0 0 0 0 0 0 0 0 0 0 0 0 0 0 0 0 0 0
0 0 0 0 0 0 0 0 0 0 0 0 0 0 0 0 0 0 0 0 0 0 0 0 0 0 0 0 0 0 0 0 0 0 0 0 0 0 0 0 0 0 1
0 0 0 0 0 0 0 0 0 0 0 0 0 0 0 0 0 0 0 0 0 0 0 0 0 0 0 0 0 0 0 0 0 0 0 0 0 0 0 0 0 0 0
0 0 0 0 0 0 0 0 0 0 0 0 0 0 0 0 0 0 0 0 0 0 0 0 0 0 0 0 0 0 0 0 0 0 0 0 0 0 0 0 0 1 1
0 0 0 0 0 0 0 0 0 0 0 0 0 0 0 0 0 0 0 0 0 0 0 0 0 0 0 0 0 0 0 0 0 0 0 0 0 0 0 0 0 1 1
0 0 0 0 0 0 1 1 1 1 0 0 1 1 0 0 1 0 0 0 0 0 0 0 0 0 0 0 0 0 1 1 1 1 0 1 1 1 1 0 0 1 0
0 0 0 0 0 0 0 1 1 1 1 1 1 1 0 0 1 0 0 0 0 0 0 0 0 0 0 0 1 1 2 1 2 2 1 0 1 1 2 1 1 1 1
1 1 1 1 1 0 0 0 0 1 1 1 1 1 0 0 0 1 1 0 0 0 1 0 0 0 0 0 1 2 2 2 2 2 1 2 2 4 4 2 1 1 1
1 1 1 1 1 1 1 1 1 2 1 3 1 1 1 1 0 1 1 1 1 1 1 0 0 1 1 2 1 1 1 1 1 1 2 2 3 2 3 1 0 0 1
1 1 2 1 1 1 1 2 1 1 1 1 1 1 1 1 1 1 1 1 1 1 1 1 1 1 1 1 1 0 1 2 1 0 1 1 1 2 1 2 0 0 0
2 2 1 1 1 2 2 1 1 1 1 1 0 1 1 1 1 1 1 1 2 2 2 1 1 1 1 1 2 1 0 1 0 0 0 1 0 1 1 0 0 0 0
2 1 1 1 1 1 1 1 1 1 1 0 0 1 1 1 1 1 1 1 1 1 1 1 1 2 2 2 2 1 1 0 0 0 0 0 0 0 0 0 0 0 0
1 1 1 1 1 1 1 1 1 1 1 1 1 1 1 1 1 1 1 1 1 1 1 1 1 1 1 2 2 1 0 0 0 0 0 0 0 0 0 0 0 0 0
1 1 1 1 1 1 1 1 1 1 3 2 2 3 2 2 1 1 1 1 1 1 1 1 1 1 1 1 1 1 0 0 0 0 0 0 0 0 0 0 0 0 0
1 1 1 1 1 1 1 1 1 2 3 2 1 2 2 1 1 1 1 1 1 1 1 1 1 1 1 1 1 1 1 0 0 0 0 0 0 0 0 0 0 0 0
0 0 1 1 1 1 1 2 2 2 2 2 2 1 1 1 0 0 0 0 0 0 0 0 0 0 0 0 1 1 1 1 0 0 0 0 0 0 0 0 0 0 1
Wind_Speed_500mb
39 49 48 47 44 41 40 41 47 47 43 40 36 34 29 26 29 34 35 34 32 31 28 25 23 18 16 19 18 16 18 19 20 20 20 22 22 21 20 20 21 12 13
44 51 49 45 43 40 42 44 49 49 45 40 35 31 28 27 29 35 33 28 28 27 25 23 21 18 18 19 18 17 18 19 19 18 19 19 18 19 19 20 18 10 11
47 52 49 46 43 41 41 46 52 51 46 40 34 29 26 27 32 34 30 27 26 24 22 20 19 19 21 22 22 20 19 20 19 18 18 10 4 13 17 19 17 15 9
49 55 53 49 43 42 41 45 52 50 46 41 35 29 27 29 33 33 29 26 25 23 22 21 20 21 22 23 24 24 22 21 18 15 13 8 6 8 12 15 15 13 11
50 56 55 50 45 42 46 51 50 49 45 40 35 31 28 30 34 33 30 27 25 24 23 22 21 22 25 25 23 19 17 17 14 13 5 4 8 6 5 9 11 10 8
50 52 55 50 46 45 46 47 46 45 43 39 35 32 32 33 37 35 30 26 25 24 23 22 22 22 26 21 18 14 13 12 8 2 7 9 8 17 7 6 6 6 6
50 49 57 51 46 46 45 42 41 41 40 38 35 33 33 35 39 35 29 25 24 23 23 22 21 23 24 21 16 13 12 9 3 9 10 9 9 10 9 8 6 6 6
50 50 59 53 48 45 42 39 37 35 35 35 34 34 34 36 39 35 29 25 23 22 22 22 22 23 22 20 18 17 15 14 8 12 13 13 18 15 15 14 12 10 8
48 50 59 58 54 48 43 38 34 29 28 31 31 32 33 36 38 34 29 25 22 21 21 22 22 23 23 22 22 22 23 23 20 16 19 18 29 21 21 24 22 18 15
47 48 53 59 57 54 48 42 35 30 27 26 26 28 29 31 32 30 27 26 24 22 21 22 23 23 24 26 28 29 29 28 27 25 26 25 34 32 30 29 28 27 24
47 47 48 50 50 47 48 46 40 35 30 28 27 28 28 30 31 30 29 27 25 24 22 22 24 26 27 27 29 30 30 26 25 27 27 36 34 35 36 35 36 32 30
51 50 49 48 48 46 41 47 46 41 37 34 31 31 31 28 30 28 32 31 30 29 28 26 27 27 29 22 23 28 26 24 27 29 29 43 33 36 37 36 34 33 33
49 47 48 49 48 47 41 40 37 35 33 34 36 36 30 29 29 29 25 31 33 34 33 33 33 29 23 24 23 25 25 25 27 29 30 41 36 38 35 34 35 32 32
52 49 49 47 46 46 39 38 37 36 35 33 35 40 34 30 29 25 24 24 29 29 31 34 30 35 37 36 35 33 30 30 29 30 31 43 41 43 41 39 40 40 39
53 53 52 48 46 46 44 37 36 36 36 34 34 39 36 33 31 28 27 24 25 26 29 32 33 35 37 41 40 38 36 36 38 38 34 43 40 45 48 50 50 48 45
50 49 49 50 49 49 51 44 39 36 33 35 34 40 45 36 32 27 26 24 25 26 28 30 33 37 40 37 38 37 41 41 42 41 37 38 48 47 53 57 56 51 47
45 42 47 46 43 45 47 45 40 34 34 33 34 40 45 39 40 34 25 23 25 27 31 33 35 37 37 39 39 40 42 42 36 36 41 38 42 46 50 52 55 54 54
43 43 45 43 43 43 41 38 35 31 32 28 31 35 40 43 44 35 26 24 26 28 32 34 32 35 37 39 37 36 37 35 36 44 50 55 44 39 36 45 50 55 49
46 44 42 41 40 43 41 36 35 40 37 38 33 29 35 44 31 36 30 35 36 39 41 33 35 37 37 39 35 39 40 41 45 48 49 53 48 48 52 49 57 54 46
43 42 38 32 34 36 38 42 29 28 31 27 24 25 29 25 32 34 31 34 37 34 32 34 36 38 39 42 42 52 48 45 45 46 67 71 60 51 57 59 49 49 48
42 42 43 36 34 37 41 33 32 29 26 24 24 25 22 22 30 33 24 28 31 34 36 40 39 42 44 46 49 54 57 47 51 54 75 83 79 74 63 60 54 64 45
45 49 49 38 36 32 28 27 25 23 23 20 18 24 29 27 29 32 35 35 34 37 39 40 45 50 48 41 43 49 57 57 59 59 54 59 67 95 89 62 62 54 59
41 41 39 37 33 33 30 28 27 24 21 18 16 17 26 28 30 35 43 40 38 41 36 39 43 47 49 49 47 45 27 19 36 48 55 53 54 56 74 77 75 60 41
29 31 30 32 32 34 31 20 23 17 15 15 14 12 13 24 25 29 26 23 27 28 33 35 29 33 32 32 30 29 35 43 35 39 42 52 45 46 50 60 48 30 32
30 30 32 31 30 28 23 18 18 21 16 11 13 18 17 16 15 16 21 26 31 31 35 37 36 30 25 28 27 33 39 42 46 39 50 40 29 42 33 31 24 27 27
27 27 28 28 25 22 21 22 22 19 16 11 11 6 7 8 13 15 16 18 23 26 28 29 30 37 38 40 43 44 44 35 31 34 42 48 47 44 35 33 43 49 62
Wind_Direction_500mb
161 169 166 162 161 161 166 173 174 171 167 161 151 141 131 137 150 149 149 150 153 156 160 161 161 160 148 152 153 141 133 129 129 124 123 119 118 115 112 107 109 93 100
164 170 168 166 164 163 167 174 176 174 171 165 158 147 140 144 155 156 154 151 152 155 156 156 163 170 165 162 159 148 139 137 130 128 126 121 119 123 120 110 106 155 106
163 170 168 167 168 166 167 172 177 176 173 170 164 156 150 153 160 161 160 156 154 154 160 164 166 165 160 158 155 145 141 135 131 129 124 95 126 128 123 116 112 111 106
163 170 169 168 170 168 168 170 173 176 176 174 171 166 162 162 164 164 164 162 156 154 155 155 154 154 152 154 149 144 137 131 125 125 85 160 163 144 131 124 121 120 115
163 168 171 170 170 170 170 171 175 177 179 179 178 175 172 170 169 169 167 165 159 156 155 149 146 146 147 146 148 148 142 137 134 122 190 198 171 252 154 138 136 138 133
163 167 171 171 172 170 171 174 177 180 183 185 185 184 178 175 176 174 171 169 165 164 162 155 153 148 154 158 160 162 165 158 148 57 245 244 213 230 208 178 172 167 168
166 168 172 172 172 170 171 173 177 182 187 188 190 188 184 181 180 177 173 172 171 175 176 170 165 168 171 175 180 186 190 185 180 264 261 260 258 239 230 223 225 232 237
168 170 174 173 174 172 173 174 175 178 182 186 186 188 187 185 183 181 179 180 178 186 190 189 187 187 191 198 206 211 218 225 237 272 267 266 257 253 255 256 252 252 260
172 170 176 175 176 176 177 175 173 172 177 182 185 188 190 189 187 188 189 190 190 195 202 206 210 212 216 223 229 232 239 245 251 259 268 271 269 263 267 263 261 261 259
178 178 175 179 180 180 180 179 177 175 174 179 184 188 190 192 196 199 203 204 205 207 214 218 223 228 233 238 242 246 251 258 266 267 270 267 265 266 271 271 263 261 262
186 184 181 180 181 180 183 183 183 184 182 179 179 185 189 195 199 209 213 218 225 225 227 233 236 237 240 246 253 256 261 263 258 266 267 266 272 272 271 269 260 257 262
188 189 186 185 184 182 185 189 188 191 190 190 189 189 191 193 201 205 223 227 232 234 237 240 243 246 248 247 269 267 264 257 264 266 268 266 274 273 270 263 255 256 268
190 191 191 187 190 187 188 190 188 190 193 195 196 198 188 196 205 205 218 227 233 237 242 245 250 249 242 239 248 249 256 261 263 266 267 271 266 269 269 255 254 259 266
191 193 193 194 193 188 193 193 195 195 198 200 202 208 202 201 211 204 216 224 231 234 237 236 238 234 245 254 254 258 258 261 260 263 266 272 262 264 265 260 255 258 261
195 194 194 196 197 195 192 200 200 200 204 205 208 217 211 210 221 223 221 224 235 242 244 246 247 244 246 248 251 255 256 255 258 260 263 270 265 263 266 264 263 263 262
195 197 195 196 200 200 199 201 205 207 214 210 213 223 224 220 228 224 232 238 240 246 250 250 252 254 256 244 249 249 256 259 262 263 261 259 266 265 269 268 266 261 258
200 195 196 198 204 204 208 213 212 215 214 217 220 238 235 231 235 234 236 245 253 256 258 257 255 253 257 261 252 251 255 261 264 264 272 269 265 266 265 265 262 263 261
199 198 196 198 204 209 211 215 213 215 212 222 230 229 232 234 232 238 245 254 259 265 263 264 262 261 259 260 263 266 262 261 267 268 272 276 265 257 258 270 261 257 252
197 192 193 200 209 215 213 212 214 217 215 224 226 226 235 231 232 242 247 255 263 265 268 266 259 255 256 259 265 269 268 274 281 279 270 270 269 264 255 266 268 256 249
194 189 187 202 207 209 208 211 211 217 221 218 222 221 226 224 237 250 256 263 265 268 269 267 265 260 263 266 271 275 273 277 279 277 282 282 278 278 267 265 268 267 254
191 194 203 205 204 211 212 210 209 213 216 218 218 218 225 233 248 254 254 268 268 272 274 277 270 272 273 275 271 274 277 282 287 288 284 280 270 271 271 271 265 258 264
192 202 211 204 213 208 196 192 197 206 213 218 221 229 233 246 264 263 268 279 276 277 278 277 272 270 268 270 268 280 285 284 285 291 294 302 287 263 265 262 266 267 254
191 190 193 197 198 191 182 193 213 215 226 226 227 230 247 263 272 264 277 279 281 283 279 276 280 278 275 270 267 270 288 275 297 314 303 302 294 278 259 260 264 267 255
182 183 183 178 178 184 187 195 209 197 203 197 190 209 246 265 273 273 274 278 286 285 286 288 289 287 281 278 271 275 276 280 284 301 302 317 308 306 286 269 263 238 260
165 164 170 171 175 197 209 198 191 187 194 197 248 258 253 276 265 273 284 286 281 269 270 279 280 285 272 274 276 278 284 273 276 276 289 301 302 307 280 257 245 278 268
147 148 152 156 162 178 178 187 186 198 196 197 220 243 246 248 283 287 297 299 297 293 292 297 293 282 267 271 270 278 278 265 275 278 276 283 287 293 282 255 260 265 269
Wind_Speed_850mb
39 49 48 47 44 41 40 41 47 47 43 40 36 34 29 26 29 34 35 34 32 31 28 25 23 18 16 19 18 16 18 19 20 20 20 22 22 21 20 20 21 12 13
44 51 49 45 43 40 42 44 49 49 45 40 35 31 28 27 29 35 33 28 28 27 25 23 21 18 18 19 18 17 18 19 19 18 19 19 18 19 19 20 18 10 11
47 52 49 46 43 41 41 46 52 51 46 40 34 29 26 27 32 34 30 27 26 24 22 20 19 19 21 22 22 20 19 20 19 18 18 10 4 13 17 19 17 15 9
49 55 53 49 43 42 41 45 52 50 46 41 35 29 27 29 33 33 29 26 25 23 22 21 20 21 22 23 24 24 22 21 18 15 13 8 6 8 12 15 15 13 11
50 56 55 50 45 42 46 51 50 49 45 40 35 31 28 30 34 33 30 27 25 24 23 22 21 22 25 25 23 19 17 17 14 13 5 4 8 6 5 9 11 10 8
50 52 55 50 46 45 46 47 46 45 43 39 35 32 32 33 37 35 30 26 25 24 23 22 22 22 26 21 18 14 13 12 8 2 7 9 8 17 7 6 6 6 6
50 49 57 51 46 46 45 42 41 41 40 38 35 33 33 35 39 35 29 25 24 23 23 22 21 23 24 21 16 13 12 9 3 9 10 9 9 10 9 8 6 6 6
50 50 59 53 48 45 42 39 37 35 35 35 34 34 34 36 39 35 29 25 23 22 22 22 22 23 22 20 18 17 15 14 8 12 13 13 18 15 15 14 12 10 8
48 50 59 58 54 48 43 38 34 29 28 31 31 32 33 36 38 34 29 25 22 21 21 22 22 23 23 22 22 22 23 23 20 16 19 18 29 21 21 24 22 18 15
47 48 53 59 57 54 48 42 35 30 27 26 26 28 29 31 32 30 27 26 24 22 21 22 23 23 24 26 28 29 29 28 27 25 26 25 34 32 30 29 28 27 24
47 47 48 50 50 47 48 46 40 35 30 28 27 28 28 30 31 30 29 27 25 24 22 22 24 26 27 27 29 30 30 26 25 27 27 36 34 35 36 35 36 32 30
51 50 49 48 48 46 41 47 46 41 37 34 31 31 31 28 30 28 32 31 30 29 28 26 27 27 29 22 23 28 26 24 27 29 29 43 33 36 37 36 34 33 33
49 47 48 49 48 47 41 40 37 35 33 34 36 36 30 29 29 29 25 31 33 34 33 33 33 29 23 24 23 25 25 25 27 29 30 41 36 38 35 34 35 32 32
52 49 49 47 46 46 39 38 37 36 35 33 35 40 34 30 29 25 24 24 29 29 31 34 30 35 37 36 35 33 30 30 29 30 31 43 41 43 41 39 40 40 39
53 53 52 48 46 46 44 37 36 36 36 34 34 39 36 33 31 28 27 24 25 26 29 32 33 35 37 41 40 38 36 36 38 38 34 43 40 45 48 50 50 48 45
50 49 49 50 49 49 51 44 39 36 33 35 34 40 45 36 32 27 26 24 25 26 28 30 33 37 40 37 38 37 41 41 42 41 37 38 48 47 53 57 56 51 47
45 42 47 46 43 45 47 45 40 34 34 33 34 40 45 39 40 34 25 23 25 27 31 33 35 37 37 39 39 40 42 42 36 36 41 38 42 46 50 52 55 54 54
43 43 45 43 43 43 41 38 35 31 32 28 31 35 40 43 44 35 26 24 26 28 32 34 32 35 37 39 37 36 37 35 36 44 50 55 44 39 36 45 50 55 49
46 44 42 41 40 43 41 36 35 40 37 38 33 29 35 44 31 36 30 35 36 39 41 33 35 37 37 39 35 39 40 41 45 48 49 53 48 48 52 49 57 54 46
43 42 38 32 34 36 38 42 29 28 31 27 24 25 29 25 32 34 31 34 37 34 32 34 36 38 39 42 42 52 48 45 45 46 67 71 60 51 57 59 49 49 48
42 42 43 36 34 37 41 33 32 29 26 24 24 25 22 22 30 33 24 28 31 34 36 40 39 42 44 46 49 54 57 47 51 54 75 83 79 74 63 60 54 64 45
45 49 49 38 36 32 28 27 25 23 23 20 18 24 29 27 29 32 35 35 34 37 39 40 45 50 48 41 43 49 57 57 59 59 54 59 67 95 89 62 62 54 59
41 41 39 37 33 33 30 28 27 24 21 18 16 17 26 28 30 35 43 40 38 41 36 39 43 47 49 49 47 45 27 19 36 48 55 53 54 56 74 77 75 60 41
29 31 30 32 32 34 31 20 23 17 15 15 14 12 13 24 25 29 26 23 27 28 33 35 29 33 32 32 30 29 35 43 35 39 42 52 45 46 50 60 48 30 32
30 30 32 31 30 28 23 18 18 21 16 11 13 18 17 16 15 16 21 26 31 31 35 37 36 30 25 28 27 33 39 42 46 39 50 40 29 42 33 31 24 27 27
27 27 28 28 25 22 21 22 22 19 16 11 11 6 7 8 13 15 16 18 23 26 28 29 30 37 38 40 43 44 44 35 31 34 42 48 47 44 35 33 43 49 62
Wind_Direction_850mb
161 169 166 162 161 161 166 173 174 171 167 161 151 141 131 137 150 149 149 150 153 156 160 161 161 160 148 152 153 141 133 129 129 124 123 119 118 115 112 107 109 93 100
164 170 168 166 164 163 167 174 176 174 171 165 158 147 140 144 155 156 154 151 152 155 156 156 163 170 165 162 159 148 139 137 130 128 126 121 119 123 120 110 106 155 106
163 170 168 167 168 166 167 172 177 176 173 170 164 156 150 153 160 161 160 156 154 154 160 164 166 165 160 158 155 145 141 135 131 129 124 95 126 128 123 116 112 111 106
163 170 169 168 170 168 168 170 173 176 176 174 171 166 162 162 164 164 164 162 156 154 155 155 154 154 152 154 149 144 137 131 125 125 85 160 163 144 131 124 121 120 115
163 168 171 170 170 170 170 171 175 177 179 179 178 175 172 170 169 169 167 165 159 156 155 149 146 146 147 146 148 148 142 137 134 122 190 198 171 252 154 138 136 138 133
163 167 171 171 172 170 171 174 177 180 183 185 185 184 178 175 176 174 171 169 165 164 162 155 153 148 154 158 160 162 165 158 148 57 245 244 213 230 208 178 172 167 168
166 168 172 172 172 170 171 173 177 182 187 188 190 188 184 181 180 177 173 172 171 175 176 170 165 168 171 175 180 186 190 185 180 264 261 260 258 239 230 223 225 232 237
168 170 174 173 174 172 173 174 175 178 182 186 186 188 187 185 183 181 179 180 178 186 190 189 187 187 191 198 206 211 218 225 237 272 267 266 257 253 255 256 252 252 260
172 170 176 175 176 176 177 175 173 172 177 182 185 188 190 189 187 188 189 190 190 195 202 206 210 212 216 223 229 232 239 245 251 259 268 271 269 263 267 263 261 261 259
178 178 175 179 180 180 180 179 177 175 174 179 184 188 190 192 196 199 203 204 205 207 214 218 223 228 233 238 242 246 251 258 266 267 270 267 265 266 271 271 263 261 262
186 184 181 180 181 180 183 183 183 184 182 179 179 185 189 195 199 209 213 218 225 225 227 233 236 237 240 246 253 256 261 263 258 266 267 266 272 272 271 269 260 257 262
188 189 186 185 184 182 185 189 188 191 190 190 189 189 191 193 201 205 223 227 232 234 237 240 243 246 248 247 269 267 264 257 264 266 268 266 274 273 270 263 255 256 268
190 191 191 187 190 187 188 190 188 190 193 195 196 198 188 196 205 205 218 227 233 237 242 245 250 249 242 239 248 249 256 261 263 266 267 271 266 269 269 255 254 259 266
191 193 193 194 193 188 193 193 195 195 198 200 202 208 202 201 211 204 216 224 231 234 237 236 238 234 245 254 254 258 258 261 260 263 266 272 262 264 265 260 255 258 261
195 194 194 196 197 195 192 200 200 200 204 205 208 217 211 210 221 223 221 224 235 242 244 246 247 244 246 248 251 255 256 255 258 260 263 270 265 263 266 264 263 263 262
195 197 195 196 200 200 199 201 205 207 214 210 213 223 224 220 228 224 232 238 240 246 250 250 252 254 256 244 249 249 256 259 262 263 261 259 266 265 269 268 266 261 258
200 195 196 198 204 204 208 213 212 215 214 217 220 238 235 231 235 234 236 245 253 256 258 257 255 253 257 261 252 251 255 261 264 264 272 269 265 266 265 265 262 263 261
199 198 196 198 204 209 211 215 213 215 212 222 230 229 232 234 232 238 245 254 259 265 263 264 262 261 259 260 263 266 262 261 267 268 272 276 265 257 258 270 261 257 252
197 192 193 200 209 215 213 212 214 217 215 224 226 226 235 231 232 242 247 255 263 265 268 266 259 255 256 259 265 269 268 274 281 279 270 270 269 264 255 266 268 256 249
194 189 187 202 207 209 208 211 211 217 221 218 222 221 226 224 237 250 256 263 265 268 269 267 265 260 263 266 271 275 273 277 279 277 282 282 278 278 267 265 268 267 254
191 194 203 205 204 211 212 210 209 213 216 218 218 218 225 233 248 254 254 268 268 272 274 277 270 272 273 275 271 274 277 282 287 288 284 280 270 271 271 271 265 258 264
192 202 211 204 213 208 196 192 197 206 213 218 221 229 233 246 264 263 268 279 276 277 278 277 272 270 268 270 268 280 285 284 285 291 294 302 287 263 265 262 266 267 254
191 190 193 197 198 191 182 193 213 215 226 226 227 230 247 263 272 264 277 279 281 283 279 276 280 278 275 270 267 270 288 275 297 314 303 302 294 278 259 260 264 267 255
182 183 183 178 178 184 187 195 209 197 203 197 190 209 246 265 273 273 274 278 286 285 286 288 289 287 281 278 271 275 276 280 284 301 302 317 308 306 286 269 263 238 260
165 164 170 171 175 197 209 198 191 187 194 197 248 258 253 276 265 273 284 286 281 269 270 279 280 285 272 274 276 278 284 273 276 276 289 301 302 307 280 257 245 278 268
147 148 152 156 162 178 178 187 186 198 196 197 220 243 246 248 283 287 297 299 297 293 292 297 293 282 267 271 270 278 278 265 275 278 276 283 287 293 282 255 260 265 269